EW1625 Weather Reports


time (UTC)temp
C
wind
direction
speed
KPH
gust
KPH
rain 1hr
cm
rain 24hr
cm
rain mn
cm
humidity
%
barometer
mb
20260507014539 20 234 8.0 16.1 0.00 0.00 0.00 59 1014.5
20260507013038 21 250 9.7 16.1 0.00 0.00 0.00 57 1014.5
20260507011539 21 270 8.0 17.7 0.00 0.00 0.00 58 1014.4
20260507010043 21 253 11.3 17.7 0.00 0.00 0.00 58 1014.4
20260507004537 21 218 9.7 17.7 0.00 0.00 0.00 57 1014.3
20260507003036 21 230 8.0 17.7 0.00 0.00 0.00 57 1014.3
20260507001536 21 255 12.9 17.7 0.00 0.00 0.00 57 1014.3
20260507000037 22 256 11.3 16.1 0.00 0.00 0.00 56 1014.3
20260506234543 22 199 9.7 16.1 0.00 0.00 0.00 56 1014.3
20260506233035 22 224 9.7 20.9 0.00 0.00 0.00 56 1014.2
20260506231534 22 239 11.3 24.1 0.00 0.00 0.00 56 1014.2
20260506230034 22 239 12.9 22.5 0.00 0.00 0.00 56 1014.3
20260506224532 22 237 14.5 24.1 0.00 0.00 0.00 56 1014.5
20260506223031 22 217 14.5 27.4 0.00 0.00 0.00 55 1014.6
20260506221527 22 271 12.9 25.7 0.00 0.00 0.00 56 1014.8
20260506220034 22 262 16.1 25.7 0.00 0.00 0.00 57 1015.1
20260506214525 22 260 14.5 24.1 0.00 0.00 0.00 56 1015.3
20260506213029 22 264 12.9 27.4 0.00 0.00 0.00 56 1015.4
20260506211524 22 267 16.1 24.1 0.00 0.00 0.00 58 1015.5
20260506210025 22 240 9.7 25.7 0.00 0.00 0.00 58 1015.6
20260506204520 22 180 16.1 24.1 0.00 0.00 0.00 58 1015.7
20260506203024 22 270 14.5 27.4 0.00 0.00 0.00 58 1015.8
20260506201516 22 240 12.9 27.4 0.00 0.00 0.00 58 1016.0
20260506200014 22 232 8.0 20.9 0.00 0.00 0.00 54 1016.0
20260506194512 22 217 11.3 25.7 0.00 0.00 0.00 53 1016.1
20260506193009 21 269 12.9 24.1 0.00 0.00 0.00 55 1016.2
20260506191506 21 252 4.8 24.1 0.00 0.00 0.00 55 1016.4
20260506184605 20 279 9.7 20.9 0.00 0.00 0.00 58 1016.7
20260506183103 20 285 11.3 20.9 0.00 0.00 0.00 57 1016.8
20260506181555 20 246 9.7 22.5 0.00 0.00 0.00 58 1017.0
20260506180045 19 251 8.0 19.3 0.00 0.00 0.00 60 1017.1
20260506174543 18 285 8.0 14.5 0.00 0.00 0.00 63 1017.0
20260506173045 18 265 9.7 17.7 0.00 0.00 0.00 62 1017.1
20260506171542 17 218 8.0 14.5 0.00 0.00 0.00 65 1017.2
20260506170035 17 271 4.8 12.9 0.00 0.00 0.00 65 1017.4
20260506164526 17 268 3.2 9.7 0.00 0.00 0.00 65 1017.4
20260506163025 16 169 0.0 6.4 0.00 0.00 0.00 69 1017.4
20260506161522 15 23 3.2 12.9 0.00 0.00 0.00 73 1017.5
20260506160019 14 33 9.7 14.5 0.00 0.00 0.00 75 1017.7
20260506154510 13 17 8.0 16.1 0.00 0.00 0.00 78 1017.6
20260506153006 12 53 11.3 17.7 0.00 0.00 0.00 80 1017.8
20260506151501 12 30 8.0 16.1 0.00 0.00 0.00 84 1017.9
20260506144601 10 39 12.9 19.3 0.00 0.00 0.00 88 1018.1
20260506143054 10 42 11.3 17.7 0.00 0.00 0.00 89 1017.9
20260506141545 10 46 9.7 16.1 0.00 0.00 0.00 90 1017.9
20260506140041 9 35 8.0 16.1 0.00 0.00 0.00 92 1017.7
20260506134537 8 61 4.8 16.1 0.00 0.00 0.00 92 1017.6
20260506133039 8 42 11.3 17.7 0.00 0.00 0.00 93 1017.5
20260506131531 8 69 6.4 11.3 0.00 0.00 0.00 92 1017.5
20260506130031 8 53 4.8 11.3 0.00 0.00 0.00 92 1017.3
20260506124526 8 53 6.4 9.7 0.00 0.00 0.00 92 1017.5
20260506123024 8 71 3.2 9.7 0.00 0.00 0.00 91 1017.1
20260506121521 8 83 4.8 9.7 0.00 0.00 0.00 92 1017.0
20260506120021 8 66 3.2 11.3 0.00 0.00 0.00 91 1017.1
20260506114528 8 46 4.8 9.7 0.00 0.00 0.00 92 1017.0
20260506113020 8 46 3.2 9.7 0.00 0.00 0.00 92 1016.9
20260506111519 8 69 3.2 9.7 0.00 0.00 0.00 91 1016.9
20260506110017 8 76 3.2 8.0 0.00 0.00 0.00 91 1016.8
20260506104515 9 44 6.4 11.3 0.00 0.00 0.00 90 1016.9
20260506103016 9 52 4.8 9.7 0.00 0.00 0.00 92 1016.8
20260506101518 8 29 6.4 16.1 0.00 0.00 0.00 91 1016.8
20260506100010 8 82 3.2 8.0 0.00 0.00 0.00 90 1016.8
20260506094514 8 90 1.6 8.0 0.00 0.00 0.00 90 1017.0
20260506093007 9 65 0.0 6.4 0.00 0.00 0.00 90 1017.0
20260506091504 10 31 0.0 4.8 0.00 0.00 0.00 91 1017.0
20260506090006 9 100 1.6 6.4 0.00 0.00 0.00 91 1017.1
20260506084503 9 55 1.6 4.8 0.00 0.00 0.00 89 1017.1
20260506083059 9 62 1.6 3.2 0.00 0.00 0.00 89 1017.1
20260506081555 10 57 0.0 1.6 0.00 0.00 0.00 89 1017.3
20260506073048 10 57 0.0 3.2 0.00 0.00 0.00 87 1017.1
20260506071600 10 193 0.0 0.0 0.00 0.00 0.00 87 1017.0
20260506061535 12 193 0.0 4.8 0.00 0.00 0.00 85 1016.1
20260506044528 13 212 1.6 6.4 0.00 0.00 0.00 80 1015.3
20260506043027 13 178 1.6 6.4 0.00 0.00 0.00 80 1015.2
20260506041530 13 198 0.0 6.4 0.00 0.00 0.00 79 1015.0
20260506040026 14 221 1.6 6.4 0.00 0.00 0.00 78 1014.7
20260506034520 14 232 3.2 9.7 0.00 0.00 0.00 77 1014.4
20260506033026 15 234 0.0 4.8 0.00 0.00 0.00 75 1014.3
20260506031523 15 178 1.6 8.0 0.00 0.00 0.00 74 1014.1
20260506030022 15 148 8.0 14.5 0.00 0.00 0.00 72 1013.8
20260506024516 16 287 1.6 6.4 0.00 0.00 0.00 70 1013.5
20260506023016 16 262 3.2 9.7 0.00 0.00 0.00 69 1013.2
20260506021515 17 219 6.4 12.9 0.00 0.00 0.00 68 1013.1
20260506020020 17 214 9.7 12.9 0.00 0.00 0.00 67 1012.9